Location: Écuvilly
(49.6505°N, 2.9206°E)
Time: 17:21:57
(UTC+00:00)

Cosmos 1464 Rocket - Pass Details

Date: 17 November 2025
Orbit: 950 x 1001 km, 82.9° (Epoch: 10 December)

Event Time Altitude Azimuth Distance (km) Brightness Sun altitude
Rises 17:16:19 0° 161° (SSE) 3,691 7.0 -11.8°
Reaches altitude 10° 17:19:00 10° 153° (SSE) 2,740 6.2 -12.2°
Maximum altitude 17:24:42 38° 88° (E) 1,451 4.4 -13.1°
Drops below altitude 10° 17:30:23 10° 22° (NNE) 2,724 6.0 -14.0°
Sets 17:33:02 0° 15° (NNE) 3,668 6.7 -14.4°
